This demonstration page uses our WeatherBlox Daily Observations layout. Learn more.

38.88101, -77.10428

Hourly Observations for November 10, 2016

Temp ( °F °C ) Dew Point ( °F °C ) Humidity (%) Winds ( mph kmh ) Pressure ( in mb ) Visibility ( mi km ) Precip ( " mm )
12:52 am 00:52 Cloudy 51 10.6 39 3.9 64 64 NW 18 30 30.06 1018 10 16.09344 0 0
1:52 am 01:52 Clear 49 9.4 34 1.1 56 56 NNW 15 24 30.06 1018 10 16.09344 0 0
2:52 am 02:52 Clear 47 8.3 34 1.1 61 61 NNW 13 20 30.09 1019 10 16.09344 0 0
3:52 am 03:52 Clear 45 7.2 35 1.7 68 68 NNW 9 15 30.09 1019 10 16.09344 0 0
4:52 am 04:52 Clear 45 7.2 34 1.1 66 66 NNW 8 13 30.06 1018 10 16.09344 0 0
5:52 am 05:52 Mostly Clear 45 7.2 35 1.7 68 68 NNW 14 22 30.09 1019 10 16.09344 0 0
6:52 am 06:52 Mostly Sunny 45 7.2 35 1.7 68 68 NNW 10 17 30.12 1020 10 16.09344 0 0
7:52 am 07:52 Mostly Sunny 47 8.3 36 2.2 66 66 NNW 12 19 30.12 1020 10 16.09344 0 0
8:52 am 08:52 Mostly Sunny 50 10 36 2.2 59 59 NNW 13 20 30.15 1021 10 16.09344 0 0
9:52 am 09:52 Mostly Sunny 53 11.7 36 2.2 52 52 NNW 20 31 30.15 1021 10 16.09344 0 0
10:52 am 10:52 Mostly Cloudy 56 13.3 34 1.1 44 44 NW 17 28 30.12 1020 10 16.09344 0 0
11:52 am 11:52 Partly Cloudy 58 14.4 34 1.1 41 41 NNW 18 30 30.09 1019 10 16.09344 0 0
12:52 pm 12:52 Mostly Cloudy 59 15 35 1.7 41 41 NW 14 22 30.06 1018 10 16.09344 0 0
1:52 pm 13:52 Mostly Cloudy 61 16.1 35 1.7 38 38 N 7 11 30.06 1018 10 16.09344 0 0
2:52 pm 14:52 Mostly Cloudy 61 16.1 35 1.7 38 38 W 8 13 30.03 1017 10 16.09344 0 0
3:52 pm 15:52 Mostly Cloudy 62 16.7 34 1.1 35 35 W 7 11 30 1016 10 16.09344 0 0
4:52 pm 16:52 Partly Cloudy 60 15.6 33 0.6 36 36 SW 7 11 29.97 1015 10 16.09344 0 0
5:52 pm 17:52 Mostly Clear 59 15 34 1.1 39 39 SW 8 13 29.97 1015 10 16.09344 0 0
6:52 pm 18:52 Clear 56 13.3 35 1.7 46 46 SSW 9 15 29.97 1015 10 16.09344 0 0
7:52 pm 19:52 Clear 53 11.7 37 2.8 55 55 SSW 9 15 29.94 1014 10 16.09344 0 0
8:52 pm 20:52 Clear 53 11.7 36 2.2 52 52 SSW 8 13 29.91 1013 10 16.09344 0 0
9:52 pm 21:52 Clear 51 10.6 36 2.2 56 56 SW 7 11 29.91 1013 10 16.09344 0 0
10:52 pm 22:52 Clear 50 10 36 2.2 59 59 SSW 9 15 29.88 1012 10 16.09344 0 0
11:52 pm 23:52 Clear 48 8.9 36 2.2 63 63 SSW 9 15 29.85 1011 10 16.09344 0 0

Powered by AerisWeather